Wind_Speed
48 45 45 45 45 46 47 47 47 45 46 45 36 27 24 25 24 22 24 29 32 32 32 35 40 41 41 42 42 42 41 38 35 35 37 39 42 44 44 45 45 44 43 46 51 55 57 57 55 54 53 53 54 54 55 54 50 43 40 39 40 43 45 45 44 42 40 42 46 45 45 46 46 46 45 44 44 43 43 43 42 43 43 42 42 41 41
48 46 46 46 46 45 45 46 46 45 45 43 34 27 24 26 25 22 24 30 34 35 34 35 40 43 42 43 45 46 46 44 41 40 41 44 46 47 47 47 47 45 43 44 48 51 54 56 57 57 55 53 53 53 55 56 55 48 42 42 43 45 45 44 42 40 38 40 43 44 44 46 46 46 46 44 44 43 42 41 40 40 40 40 40 38 38
50 48 48 48 48 46 45 45 45 45 44 39 31 26 25 27 27 24 26 31 34 38 39 36 37 42 43 44 46 48 48 46 43 42 43 45 48 49 50 50 48 46 44 43 45 48 51 54 56 58 57 54 51 52 53 55 56 52 48 47 44 42 43 43 42 40 40 43 45 44 44 45 46 46 46 45 45 45 43 42 41 41 40 40 39 38 38
52 50 50 50 48 47 46 45 44 41 37 32 28 26 27 28 28 27 28 30 33 39 42 40 38 39 42 44 46 48 49 47 46 45 44 46 47 48 49 49 48 47 45 44 44 46 48 52 55 57 58 54 51 52 54 55 55 51 49 49 46 42 42 42 40 39 40 43 46 47 47 47 47 47 47 47 48 48 48 46 44 43 42 42 41 41 42
55 53 51 50 48 46 45 43 42 39 35 30 27 27 27 26 28 30 31 33 37 40 42 42 41 41 42 43 45 47 47 46 45 46 45 45 46 47 47 48 48 47 46 45 45 45 47 50 54 56 59 57 53 53 54 55 54 51 50 51 48 44 44 43 40 38 39 42 45 47 49 49 49 49 49 50 50 50 51 51 49 47 46 45 45 45 46
56 54 54 53 51 48 45 43 42 41 37 31 28 30 31 27 28 32 34 37 42 44 42 40 40 41 41 41 43 43 43 43 43 44 44 44 44 45 45 46 46 47 46 46 46 46 46 49 51 54 58 60 57 55 54 55 53 52 53 54 51 46 44 43 40 38 38 40 44 47 49 49 51 52 53 52 52 51 52 53 52 51 49 48 48 48 49
56 56 57 57 54 51 48 46 45 44 40 35 35 37 37 34 34 36 37 38 42 45 45 42 39 40 40 39 39 39 39 40 41 42 43 43 45 45 45 45 46 47 47 46 46 46 45 46 48 51 55 60 60 58 56 55 54 53 55 57 55 50 46 44 42 40 38 38 39 42 45 46 49 52 53 53 53 52 51 52 53 53 51 48 48 48 49
57 56 57 57 55 53 50 47 47 46 43 40 41 42 42 41 40 41 41 41 42 44 45 43 41 41 41 41 40 39 37 37 38 39 40 41 42 44 44 45 45 46 47 47 47 46 45 44 45 48 52 56 59 60 58 57 56 56 57 59 59 57 53 49 47 46 45 41 39 38 40 42 44 47 50 53 55 54 54 53 53 51 48 46 46 47 48
58 56 55 55 54 53 50 48 49 49 47 45 44 45 47 46 45 45 45 46 46 46 46 44 42 41 41 40 41 40 39 38 38 39 39 40 40 41 41 43 44 44 45 47 47 47 47 46 45 46 49 53 56 58 60 59 58 59 60 60 60 61 61 58 54 52 50 48 46 44 44 44 44 45 48 51 54 54 54 53 52 50 47 46 46 47 49
60 57 56 55 53 53 52 51 51 51 51 49 47 47 49 49 48 48 47 47 48 48 48 46 44 41 39 39 39 39 39 39 40 41 41 41 42 42 40 40 41 43 43 45 46 47 48 48 47 46 48 51 54 57 59 60 61 62 63 63 62 62 64 64 61 58 55 53 51 50 49 49 49 49 49 50 51 52 53 54 53 52 51 50 50 50 50
62 59 57 56 55 54 54 54 54 53 53 52 49 48 50 51 50 49 47 47 48 48 46 46 44 41 40 39 39 39 39 39 40 42 42 42 43 44 44 41 40 41 42 43 45 46 48 49 50 49 49 51 53 56 59 60 61 63 65 66 65 63 63 64 65 64 61 59 56 55 54 53 54 54 53 52 51 52 53 54 55 55 55 55 55 55 54
61 60 58 58 57 57 57 56 56 55 55 55 51 49 50 51 51 50 48 49 51 49 47 46 45 43 42 42 42 42 43 44 44 44 44 44 44 45 46 45 43 41 42 43 44 45 47 50 52 52 52 52 53 55 58 60 62 63 65 68 68 66 64 63 63 63 63 64 63 61 58 57 57 57 56 54 53 52 52 52 53 54 55 55 55 55 55
55 57 58 59 59 59 58 57 57 56 57 56 53 50 50 52 54 53 52 53 54 52 51 50 49 47 47 46 46 47 48 48 49 48 47 47 47 47 46 46 45 44 43 43 44 45 46 49 52 54 55 55 55 55 57 59 62 63 64 67 69 70 69 65 63 61 61 64 67 67 64 61 59 58 57 57 56 55 54 53 54 54 55 55 54 54 54
49 53 56 58 59 61 60 58 58 57 57 58 56 52 53 56 58 58 57 56 56 55 55 55 54 52 52 51 50 50 51 51 51 51 50 48 48 48 48 47 47 46 45 45 45 46 46 48 52 55 57 58 58 58 58 60 62 63 64 65 68 71 72 70 67 63 62 63 65 67 67 66 64 62 60 60 59 58 57 56 57 57 58 58 57 56 56
46 48 53 56 58 60 60 59 59 59 58 59 58 56 55 59 61 61 61 60 59 59 59 58 57 56 55 54 53 54 55 54 53 52 52 50 50 50 50 49 49 49 48 47 47 47 47 48 50 53 57 59 61 61 61 61 63 64 64 65 67 69 71 73 72 70 66 64 64 65 67 69 70 69 67 66 65 64 63 62 62 62 62 62 62 61 61
45 44 48 54 58 60 61 62 62 62 62 62 61 59 58 60 62 63 64 64 63 62 61 60 58 58 57 57 58 58 58 56 54 53 52 51 51 51 51 51 51 51 50 49 48 48 48 48 49 51 54 58 61 64 64 64 65 65 66 66 67 68 70 72 74 74 72 70 68 67 67 68 71 72 73 72 71 70 69 69 68 68 67 67 67 67 68
46 45 48 52 56 59 62 63 65 65 65 64 63 62 61 62 64 65 65 66 66 65 64 62 60 59 60 60 60 60 59 57 55 54 53 53 53 53 53 54 54 53 53 53 52 51 50 49 49 50 52 55 59 63 65 67 67 67 67 68 68 68 69 71 72 74 74 74 74 72 71 71 71 72 74 74 74 74 74 73 73 73 73 73 73 73 74
45 48 50 51 51 53 56 60 62 64 63 63 63 63 64 66 68 68 67 68 68 68 67 65 63 62 61 61 61 59 58 56 55 55 55 55 55 55 55 55 56 56 56 56 56 55 53 51 50 50 51 53 57 60 62 65 68 70 70 70 70 71 71 71 71 72 73 75 76 76 75 75 74 74 75 76 76 77 77 77 77 77 77 77 77 77 78
44 47 50 51 51 50 51 54 57 58 59 61 62 63 65 68 70 70 69 69 69 69 69 68 65 64 62 61 60 58 57 56 55 55 55 55 55 55 54 55 56 57 57 56 56 56 55 54 53 52 52 53 55 58 60 62 66 69 71 73 73 74 73 73 72 72 73 74 76 77 77 77 77 78 78 78 79 79 80 80 80 80 79 79 79 80 81
44 47 50 52 52 51 50 51 52 52 53 57 60 61 64 67 69 70 69 68 68 68 69 68 67 66 64 62 60 59 58 58 57 57 57 56 55 54 53 53 54 55 56 56 55 55 55 54 54 53 53 52 53 56 59 61 64 66 70 72 75 76 76 75 75 74 74 74 76 77 79 79 79 80 80 80 81 81 82 83 83 82 82 82 82 83 83
44 46 49 50 51 51 50 51 51 49 48 51 55 58 60 64 66 67 68 68 68 67 67 67 66 65 64 62 60 59 58 58 57 57 56 55 54 54 53 52 52 53 54 55 55 54 54 53 53 53 53 53 52 53 56 60 62 65 67 70 73 75 77 77 77 77 78 78 78 79 80 81 81 81 81 82 82 83 84 85 85 85 85 86 86 86 86
42 45 47 48 49 51 51 51 51 49 47 47 50 53 56 59 62 64 65 67 68 68 67 66 65 63 62 61 59 58 58 56 56 56 56 54 54 53 53 53 52 52 52 53 54 54 53 53 53 54 54 54 54 53 54 57 60 63 66 69 71 74 76 77 78 79 80 81 81 81 82 83 84 84 85 85 85 86 87 88 89 89 89 90 90 90 90
41 43 45 47 48 50 51 51 50 49 46 45 46 48 50 52 55 58 60 63 65 67 67 67 65 64 63 62 60 59 57 56 55 56 56 56 55 54 54 54 54 53 53 52 52 53 54 54 54 54 54 55 55 55 54 55 57 60 64 67 70 73 75 76 77 79 81 83 83 84 85 85 86 87 87 88 89 89 90 90 91 92 93 93 93 94 94
39 40 42 45 46 47 49 49 48 47 45 43 43 44 45 46 48 50 53 56 59 61 63 64 64 64 63 62 61 59 58 57 56 56 57 57 57 57 56 56 56 55 55 54 53 53 55 55 55 54 54 54 55 56 56 56 56 57 59 63 67 70 73 75 77 78 80 83 85 86 87 87 88 88 89 90 90 91 91 92 92 93 94 95 95 96 97
36 38 39 41 42 44 45 45 45 44 43 42 42 42 42 43 45 47 49 51 53 55 57 59 61 62 62 61 61 60 59 58 58 58 58 58 59 59 59 58 58 58 57 57 56 56 57 58 57 57 56 56 56 57 57 58 58 58 58 59 62 65 69 72 76 78 79 81 84 86 89 90 91 91 91 92 92 93 94 94 94 95 96 97 98 99 99
32 34 35 37 38 39 40 41 41 41 40 40 41 41 41 42 43 44 46 49 51 53 54 55 57 59 59 60 60 60 60 60 60 60 60 60 60 60 60 60 60 60 60 60 59 59 60 60 60 60 60 60 60 60 59 60 61 62 62 61 62 63 64 67 70 73 76 79 82 85 88 91 93 95 95 96 96 96 96 96 97 98 99 100 100 101 101
27 29 30 31 32 34 35 35 36 36 36 37 38 38 39 40 41 42 43 45 48 49 51 53 54 55 57 58 59 60 60 61 61 61 61 61 61 61 62 62 62 62 62 62 62 63 63 63 63 63 63 63 64 64 63 63 64 65 66 66 65 65 65 66 67 68 71 74 77 81 85 88 91 94 96 98 99 99 99 99 99 100 101 102 102 102 102
22 23 24 25 26 28 29 30 31 32 33 33 35 36 38 39 41 42 43 44 46 47 49 51 52 54 56 57 58 59 60 61 61 62 63 63 63 62 63 63 63 64 64 65 65 65 66 66 66 66 66 66 67 67 67 67 67 68 69 70 69 69 69 69 69 70 70 71 73 75 79 82 84 87 90 92 95 96 97 97 98 99 100 101 101 101 101
17 18 19 20 22 23 25 27 28 30 31 32 33 35 36 38 40 42 44 45 47 48 50 51 53 54 56 57 58 59 60 60 61 61 62 63 63 63 63 64 64 65 66 66 67 67 68 69 69 70 69 69 70 70 70 70 70 71 72 73 73 73 72 73 73 74 74 74 74 75 76 78 80 81 84 86 88 90 91 92 93 95 97 98 98 98 98
13 14 15 17 18 20 22 24 25 27 29 31 32 34 36 38 40 42 45 47 49 51 52 54 55 57 58 59 60 61 62 63 63 63 63 62 62 62 63 63 64 66 67 68 68 69 70 71 72 73 73 73 73 73 73 73 74 74 75 75 76 76 76 76 77 77 78 78 78 78 79 80 81 82 82 84 85 87 87 88 89 91 93 95 96 96 97
8 10 11 12 14 15 17 19 21 23 25 27 29 31 33 35 38 40 43 46 48 50 52 54 55 57 58 59 60 61 62 63 64 65 65 65 64 64 63 63 63 65 67 68 69 70 71 73 74 75 76 76 76 76 76 76 77 77 78 78 78 78 78 79 80 81 81 81 81 82 83 84 85 85 85 85 86 87 88 87 88 90 92 94 95 95 96
4 5 6 7 8 9 11 13 14 16 19 21 23 25 27 29 32 34 37 39 42 44 46 48 50 51 53 54 55 57 58 59 60 62 63 64 65 65 65 65 65 66 67 67 68 69 71 73 75 76 78 78 79 79 80 80 80 80 81 80 81 81 81 82 83 83 84 84 84 85 86 87 87 88 87 88 89 90 90 90 90 92 93 95 96 96 97
5 4 4 4 4 5 6 8 9 11 13 15 17 19 21 22 25 27 29 31 33 36 38 39 41 43 44 46 48 49 51 52 53 55 57 59 61 62 64 65 66 67 68 68 69 69 70 72 73 75 78 79 81 81 82 83 83 84 84 84 84 84 85 85 85 86 86 87 87 87 87 88 88 89 89 90 91 92 93 93 93 94 96 97 97 98 99
7 6 5 5 4 5 5 6 7 9 10 12 13 15 16 18 19 21 23 24 26 28 30 31 33 34 35 37 39 41 43 44 46 47 49 51 54 56 58 60 62 64 66 67 69 70 70 71 72 74 76 78 80 82 83 84 86 86 87 87 87 88 88 88 88 88 89 90 90 90 90 90 90 91 92 92 93 94 94 94 95 96 97 98 98 99 100
9 8 7 6 6 6 6 6 7 8 9 10 11 12 14 15 16 18 19 21 22 23 25 26 27 28 29 31 32 33 35 37 39 40 42 44 46 48 50 53 55 58 60 62 64 66 68 69 71 72 74 76 78 79 81 84 86 87 88 89 89 90 90 90 90 91 92 93 93 93 93 93 93 94 94 95 96 96 96 96 97 98 99 99 100 100 101
9 8 7 6 4 3 2 2 2 4 5 6 8 9 10 11 13 14 15 17 18 20 21 22 23 24 25 26 28 29 30 31 33 34 36 38 40 41 43 45 48 50 53 55 58 60 62 64 67 69 71 73 75 76 78 81 83 85 87 89 90 92 92 92 93 93 94 94 95 95 95 96 96 97 97 98 98 98 98 99 100 101 101 102 102 103 103
10 10 9 9 8 7 7 6 6 6 6 7 7 8 9 10 12 13 14 15 16 17 18 19 20 21 21 22 24 25 26 27 28 30 31 32 34 36 37 39 41 43 45 48 51 53 56 58 60 63 65 68 70 72 75 77 79 81 83 85 88 90 92 93 94 94 95 96 96 97 97 97 98 98 99 99 100 100 101 101 102 103 104 104 105 105 105
8 8 8 8 8 8 8 8 9 9 9 10 11 12 13 14 15 16 18 19 20 21 21 22 22 22 22 22 23 23 24 24 25 26 27 28 30 31 32 34 35 37 39 41 44 46 49 51 54 57 59 62 64 66 69 71 74 76 78 81 83 85 87 89 91 92 94 95 96 97 98 99 99 99 100 100 101 101 102 102 103 104 105 105 106 106 106
5 4 4 4 4 5 5 6 6 7 8 9 10 11 12 14 15 17 18 20 21 23 24 25 26 26 26 26 26 26 25 25 25 25 26 26 27 28 29 30 31 33 34 36 37 39 41 44 46 49 52 55 58 60 62 65 68 70 72 75 77 80 82 84 86 87 89 91 93 94 96 97 98 99 100 101 101 102 102 103 104 104 105 105 106 106 106
4 3 3 2 2 2 2 3 4 5 6 7 7 9 10 11 13 15 16 18 20 22 23 25 26 27 28 29 29 29 30 29 29 28 28 28 28 27 27 28 29 30 31 32 34 35 36 38 40 42 45 48 51 53 56 58 61 63 66 68 70 73 75 77 80 82 83 85 87 89 91 92 93 94 96 97 98 99 100 100 101 102 103 104 104 105 105
6 5 5 4 4 3 3 4 4 5 6 6 7 8 9 10 12 13 14 16 18 19 21 23 25 26 28 28 29 30 30 31 31 31 31 31 31 30 29 28 28 28 29 30 32 33 34 34 36 37 39 41 43 46 49 51 54 56 59 61 63 65 68 70 72 74 76 78 80 83 85 86 88 89 90 92 93 94 95 96 97 98 99 99 99 100 100
7 7 7 7 6 6 6 6 6 7 7 8 8 9 9 10 11 12 13 15 16 17 19 20 22 24 26 27 28 29 30 30 31 31 32 33 33 33 32 32 31 31 30 30 31 32 32 33 34 35 36 38 39 41 43 45 47 50 52 55 57 59 61 63 65 66 68 70 72 74 76 78 80 82 84 85 87 88 89 90 91 92 93 94 94 94 94
9 9 9 9 9 9 8 8 8 9 9 10 10 11 11 12 12 13 14 15 15 16 17 18 20 21 23 24 26 27 28 29 30 30 31 32 32 33 33 33 34 34 34 33 33 32 32 32 33 34 35 36 37 39 40 42 43 45 47 49 51 53 55 57 59 60 62 63 65 66 68 70 72 74 75 77 79 80 81 82 84 85 86 87 87 87 88
11 11 11 11 11 11 11 10 10 11 11 11 12 13 13 14 15 15 15 16 16 17 17 17 18 19 21 22 23 25 26 27 28 29 29 29 30 31 32 32 33 35 36 36 36 35 35 34 33 33 33 34 35 36 38 39 41 42 44 45 47 48 50 52 54 55 57 58 59 60 62 63 65 67 68 69 70 71 72 74 75 76 78 79 80 80 80
13 14 14 14 14 13 13 13 13 13 13 13 13 14 16 17 18 18 18 18 18 18 18 18 18 19 19 20 21 23 23 24 25 26 27 27 28 29 30 30 31 32 34 35 36 37 37 37 37 36 35 35 35 35 35 37 38 39 41 42 44 45 47 48 49 51 52 53 55 56 57 59 60 62 63 64 64 64 65 66 67 68 70 71 72 72 72
15 15 15 15 15 15 15 15 15 15 15 15 15 16 17 19 20 21 22 22 22 21 21 20 20 20 20 20 20 21 22 23 24 24 25 26 26 27 28 29 29 30 30 32 33 35 36 36 37 37 37 37 37 36 36 36 36 37 38 39 41 42 44 45 46 48 49 50 51 52 53 55 56 58 59 60 60 59 60 61 62 62 64 66 66 66 66
16 17 17 17 17 17 17 16 16 17 17 16 16 17 19 21 23 24 25 26 26 25 25 24 23 22 22 21 21 22 22 23 24 24 25 25 25 26 27 28 29 29 30 30 31 33 34 34 35 35 36 37 37 37 37 37 37 37 37 37 38 39 41 42 43 45 46 47 47 48 50 52 53 54 55 56 57 56 56 57 58 59 60 60 61 61 61
18 18 18 18 18 18 18 18 18 18 18 17 18 18 20 22 24 26 27 28 29 29 29 28 27 27 26 24 24 23 23 24 24 25 26 26 26 26 26 27 28 29 29 29 29 30 32 34 34 35 35 35 36 37 37 38 38 38 38 37 37 38 39 39 41 42 43 44 44 45 46 48 50 52 52 53 54 54 53 53 54 55 56 56 57 57 57
20 20 20 20 20 19 19 19 19 19 19 18 19 19 21 23 25 27 29 30 31 31 31 31 31 30 30 29 28 27 26 26 26 26 27 28 28 29 28 28 28 29 30 30 29 29 30 31 33 34 35 35 35 35 36 37 37 37 38 38 38 38 38 38 39 40 41 42 43 43 43 44 47 49 50 51 51 52 51 51 52 53 53 53 53 53 53
21 22 22 21 21 21 20 20 20 20 19 20 20 20 22 24 26 28 29 31 32 33 34 34 34 34 34 34 33 32 31 30 29 29 29 30 31 31 31 31 31 31 32 32 32 31 31 31 31 32 34 35 36 36 36 36 36 36 37 37 38 38 38 38 38 39 40 40 41 41 42 42 43 45 47 48 49 50 50 50 50 51 51 51 51 51 51
23 23 23 23 23 22 21 21 21 20 20 20 21 22 23 25 27 28 30 32 33 35 35 36 37 37 37 37 37 37 36 35 34 33 33 33 33 34 35 35 35 35 34 34 34 34 34 33 33 33 33 35 36 37 37 37 37 37 37 36 37 37 37 38 38 38 39 39 39 40 40 41 41 42 43 45 47 47 48 48 48 49 49 50 50 50 50
24 24 24 24 24 23 23 22 21 21 21 21 22 23 25 26 28 30 32 33 34 36 37 38 39 39 39 40 40 40 40 39 39 38 37 37 36 37 37 38 38 38 37 37 36 36 36 36 35 35 34 34 36 37 38 38 38 37 37 37 37 37 37 37 37 37 37 38 38 39 39 40 40 40 41 42 44 45 46 46 47 47 48 48 49 49 49
Wind_Direction
246 244 243 242 241 241 241 242 244 246 252 257 253 243 241 240 234 226 222 217 214 216 214 208 206 207 206 205 206 207 206 208 212 214 218 223 224 225 228 231 231 232 232 229 224 222 223 222 218 217 219 221 223 226 228 227 225 226 229 227 223 225 230 232 233 237 242 244 241 239 239 241 242 244 249 252 253 252 251 251 250 249 249 249 250 251 254
240 237 236 237 236 237 239 241 244 248 253 253 242 232 234 231 223 221 223 219 216 217 216 210 207 209 210 209 208 208 209 212 217 219 221 223 224 226 230 233 236 236 235 234 230 228 228 225 221 219 220 221 223 226 227 227 225 223 222 222 221 225 230 230 232 236 240 243 244 244 243 243 244 246 249 250 250 249 249 248 248 248 248 249 251 252 254
236 233 232 234 234 235 237 240 245 250 251 245 233 226 228 221 212 212 219 220 217 216 216 212 208 209 211 212 210 210 211 215 219 223 225 225 226 230 232 235 237 237 237 236 234 233 231 228 225 223 222 223 225 227 227 228 226 224 221 220 220 224 229 230 232 236 240 242 245 246 245 244 245 246 247 246 246 247 247 247 247 248 248 250 251 252 254
234 233 231 232 234 235 237 241 246 247 242 232 224 222 222 216 210 212 218 219 217 218 218 215 212 212 212 214 214 214 214 216 219 224 227 228 229 232 235 236 237 237 236 236 236 235 232 230 228 225 224 223 224 227 228 228 228 224 220 218 218 222 226 228 231 236 240 243 246 246 245 243 243 245 246 245 246 247 247 247 248 249 250 250 251 253 256
234 234 233 232 232 233 235 240 243 239 230 222 220 219 215 213 215 219 222 221 219 221 220 217 216 217 216 218 219 218 218 220 222 226 230 232 233 235 237 238 237 236 236 236 236 236 234 231 229 226 224 222 223 226 228 229 229 225 219 216 219 224 227 227 229 231 235 240 244 246 245 242 241 244 246 247 247 247 248 248 250 251 252 252 253 255 258
234 234 234 233 232 232 235 239 237 230 223 219 217 213 206 203 211 221 226 226 222 222 223 220 218 219 221 222 222 222 224 227 228 229 232 234 235 236 237 238 237 237 237 236 236 237 235 233 231 229 226 224 224 228 230 231 229 225 219 217 220 225 226 226 226 225 229 234 239 243 246 245 243 244 246 247 247 247 248 249 251 251 252 253 254 257 260
233 233 234 235 235 235 237 238 231 224 221 218 214 211 205 200 205 214 221 226 226 225 226 225 222 223 226 227 228 228 229 230 231 231 233 234 235 235 236 237 237 237 237 236 236 237 236 234 232 231 229 227 226 229 231 232 229 225 220 219 221 221 220 219 219 219 222 228 233 239 243 245 245 245 245 245 245 245 247 249 250 251 253 254 255 257 259
232 231 232 234 235 235 235 233 226 222 221 219 216 214 210 204 205 210 216 223 228 228 228 228 226 227 228 230 233 236 236 236 235 234 234 235 235 234 234 236 236 235 237 237 237 237 236 233 231 230 230 229 229 230 232 231 228 224 220 221 223 221 219 218 217 218 221 224 227 231 235 239 242 244 245 245 245 246 247 249 252 254 254 254 254 255 257
233 231 231 232 231 231 230 227 224 223 224 223 221 219 216 211 208 211 215 219 224 227 229 230 230 230 230 231 234 237 240 241 241 241 241 240 239 235 234 235 235 235 236 238 239 240 238 233 229 228 229 230 230 231 231 230 228 224 221 221 223 223 222 221 221 222 224 226 229 231 233 235 238 241 244 246 247 249 250 252 254 256 256 255 254 255 257
232 230 228 229 229 229 228 226 226 227 226 227 226 224 222 217 212 213 217 220 223 226 228 230 232 233 234 235 236 238 240 242 243 244 245 244 242 239 236 236 236 235 236 238 240 241 240 236 230 227 228 229 229 230 231 229 227 225 222 222 223 225 225 225 226 227 228 229 232 235 237 238 239 240 243 246 249 251 252 254 255 257 258 258 257 258 260
230 229 227 226 226 226 226 226 226 226 227 228 228 226 224 220 214 214 220 225 226 226 226 228 230 232 235 237 239 241 243 245 246 247 247 246 245 242 239 237 237 237 237 238 239 240 240 239 234 228 227 228 228 229 230 230 228 226 224 223 224 226 227 228 229 231 232 233 235 237 240 242 243 244 246 248 251 253 254 256 258 259 261 261 262 263 264
228 227 225 224 224 225 226 225 225 225 226 228 228 226 224 220 216 217 224 231 231 227 225 226 227 230 233 236 240 245 248 249 250 249 249 249 247 245 242 239 238 239 239 239 239 239 240 240 237 232 229 229 228 228 229 230 230 228 227 225 225 226 228 229 230 232 234 235 236 237 239 241 244 247 249 251 252 254 256 257 259 261 263 265 266 267 268
230 228 226 224 223 224 225 225 225 225 226 228 228 226 223 219 217 219 225 231 233 231 229 229 229 231 234 238 242 246 249 250 250 250 250 250 248 247 245 242 241 241 241 241 241 239 239 240 239 236 232 230 230 229 229 230 231 230 229 228 227 227 228 229 230 233 236 238 238 238 238 240 242 245 247 249 251 253 254 256 258 260 261 263 264 265 266
234 231 229 226 224 224 225 225 225 225 226 228 229 227 223 220 219 221 223 227 231 233 234 234 234 235 237 240 243 246 248 249 249 249 249 250 249 248 247 247 245 244 244 243 243 241 239 239 239 238 235 232 231 230 229 230 232 232 231 230 229 229 229 229 230 232 235 239 241 241 240 240 241 243 245 247 249 250 252 253 255 256 258 259 260 261 262
233 231 230 229 228 227 226 226 226 225 225 227 230 230 226 222 221 222 224 226 229 232 234 236 237 239 240 242 244 246 248 249 249 249 249 250 249 249 248 249 249 248 247 245 244 242 240 239 239 239 237 235 233 232 231 231 232 232 233 232 232 231 231 231 232 233 234 237 240 242 243 243 244 244 245 246 247 249 250 252 253 255 256 258 259 259 260
232 230 229 229 229 228 227 227 226 226 225 226 229 231 229 225 222 223 226 227 229 231 234 236 237 239 241 242 244 247 248 248 249 249 249 249 250 250 249 250 251 250 250 248 246 244 242 240 239 239 239 238 236 234 233 233 233 233 233 234 234 234 234 234 234 235 236 237 239 241 243 245 246 247 248 248 250 250 251 252 253 255 256 257 258 259 260
230 230 228 228 228 228 227 227 227 227 227 227 228 229 229 227 224 224 226 228 230 231 233 235 237 238 240 242 244 246 248 248 250 251 251 251 252 252 251 252 252 252 252 251 249 247 244 242 240 240 239 239 239 237 235 234 235 235 235 235 236 236 237 237 237 238 239 240 241 242 243 244 246 248 249 250 251 252 252 253 253 254 256 257 258 259 260
227 228 229 230 230 230 229 229 229 229 228 228 228 228 228 227 225 225 226 228 230 232 234 235 237 238 240 242 244 246 248 250 252 254 255 255 255 255 254 253 253 253 253 252 251 249 246 243 242 241 240 239 240 239 237 236 236 237 237 237 237 237 239 240 240 241 241 242 243 243 244 245 246 247 248 249 250 251 252 252 253 254 255 257 258 259 261
225 226 228 230 231 231 230 230 230 230 229 228 228 228 228 227 226 226 226 228 230 232 235 237 239 240 242 243 245 247 249 252 255 257 258 258 257 256 255 254 254 253 253 253 252 251 248 245 243 241 240 240 240 240 239 237 237 237 237 237 238 238 240 241 243 244 245 245 245 245 246 246 246 247 248 249 250 251 253 253 254 255 256 257 258 260 261
223 224 226 227 228 230 230 231 232 231 229 228 228 228 229 229 228 228 228 229 231 233 236 239 241 244 245 247 248 250 252 254 256 257 258 257 257 257 256 255 254 254 254 254 253 251 249 246 243 242 241 240 240 241 241 239 239 239 239 239 239 239 240 242 243 245 246 247 247 247 247 247 248 249 250 251 252 253 254 255 256 257 257 258 259 260 262
222 222 224 226 227 228 229 231 233 234 231 228 228 230 230 231 231 231 231 231 232 234 237 240 243 245 247 248 250 251 253 254 255 256 256 255 255 255 255 254 253 253 254 254 254 252 250 247 244 242 240 240 240 240 241 241 240 240 240 240 240 241 241 242 243 245 246 247 247 247 248 248 249 250 251 252 253 254 255 256 257 257 258 259 260 261 262
222 222 224 225 225 226 228 230 233 234 233 230 230 231 232 232 233 233 233 233 233 235 237 240 243 245 247 248 249 250 251 252 252 252 252 252 252 252 253 252 252 252 251 252 253 253 251 249 246 243 241 239 239 239 241 242 241 241 241 241 242 242 243 243 244 244 246 247 247 248 248 249 249 250 251 252 254 255 256 257 258 259 260 260 261 262 263
222 223 224 225 225 226 228 230 233 235 236 234 232 232 234 234 234 234 234 234 234 235 237 239 242 245 247 249 250 250 251 250 248 248 249 249 249 249 250 251 251 251 250 250 251 251 251 250 249 247 244 242 241 240 240 241 242 242 242 242 243 243 244 244 244 245 245 246 247 248 249 250 251 252 252 254 255 256 257 258 260 261 262 262 263 264 264
223 223 225 227 228 228 229 231 234 236 238 238 236 235 236 236 236 236 236 236 236 237 238 241 243 246 249 250 251 251 250 249 247 246 247 248 248 249 249 250 250 250 250 249 249 249 249 249 249 248 248 247 245 244 243 242 242 242 243 244 244 245 245 245 245 246 246 246 247 248 250 251 252 253 253 254 255 257 258 259 260 261 262 263 264 265 265
226 226 227 229 231 231 232 234 237 239 240 241 242 241 240 240 240 239 239 240 240 240 241 243 245 247 249 250 251 251 250 250 249 248 247 247 248 249 249 249 250 250 250 250 249 248 248 248 247 247 247 247 248 248 247 246 245 243 243 244 245 246 246 247 247 247 247 247 248 248 249 250 251 253 254 255 255 256 257 258 260 261 262 263 264 265 265
229 230 230 231 233 235 236 238 240 242 244 245 246 247 247 247 246 246 245 245 246 246 246 247 247 247 249 250 251 251 251 250 250 250 249 248 248 249 249 250 250 250 250 250 250 249 249 249 248 247 246 246 246 247 247 248 248 247 245 245 245 246 246 247 248 248 249 249 249 249 249 250 250 251 252 254 255 256 257 258 259 260 261 262 263 264 265
232 233 235 236 237 238 240 242 244 246 248 250 251 253 254 254 254 253 252 252 252 252 252 253 252 252 251 251 251 252 252 252 252 251 251 250 249 249 249 249 250 250 250 250 251 250 250 250 250 249 248 248 247 246 246 246 248 248 248 247 246 247 247 248 248 248 249 249 250 250 251 251 251 252 252 253 254 255 256 258 259 260 261 262 262 264 265
233 235 237 239 241 242 244 246 248 250 252 252 253 255 257 258 259 258 258 257 255 255 255 255 255 255 255 255 254 253 253 252 252 252 251 251 250 250 249 249 249 249 249 249 250 250 251 251 251 250 250 249 249 248 247 246 246 247 248 248 248 248 248 248 248 248 248 249 250 250 251 252 253 254 254 255 256 256 257 258 259 261 262 263 264 265 266
225 229 232 235 238 241 244 246 248 250 252 252 251 251 252 253 255 256 256 256 255 255 254 254 254 255 255 256 257 257 257 256 255 254 252 251 250 250 250 249 250 250 249 248 248 249 250 250 250 251 251 250 250 250 250 249 248 248 248 249 249 248 248 249 249 249 249 249 249 250 251 252 252 253 254 255 256 257 258 259 260 261 262 263 264 265 266
217 220 223 227 230 233 237 240 243 246 247 249 249 249 248 248 249 250 251 251 252 253 253 253 253 254 254 255 255 257 258 258 259 259 258 257 255 253 251 250 249 249 249 248 248 248 248 249 249 250 250 251 251 251 251 251 251 250 250 250 250 250 250 250 250 250 250 250 250 251 251 251 251 252 252 253 255 256 257 258 259 260 261 262 262 263 264
208 213 217 221 224 227 230 234 237 240 243 245 247 248 249 249 249 250 250 251 252 253 254 255 255 256 257 257 258 258 258 259 260 260 261 262 261 260 259 256 254 253 251 249 248 248 248 248 249 249 250 250 251 251 251 251 251 252 252 252 252 252 252 252 252 252 251 251 251 251 252 252 252 252 253 253 254 255 255 256 257 258 259 261 261 262 262
166 185 200 210 218 224 228 232 236 239 242 245 247 249 250 252 252 253 254 255 255 256 257 258 259 259 260 261 261 261 261 261 261 261 261 261 262 262 262 261 260 259 257 255 253 250 249 249 248 249 249 249 250 251 251 251 251 252 252 252 252 253 253 253 254 254 254 253 253 253 253 254 254 254 255 255 256 256 257 257 258 258 259 260 261 262 263
122 136 157 180 198 214 224 232 237 241 244 247 250 252 253 254 256 256 257 258 259 259 260 260 261 262 263 263 264 264 264 263 263 262 262 261 261 261 261 260 260 260 259 259 257 256 254 252 251 250 249 249 249 250 250 251 252 252 252 252 252 252 253 253 254 255 255 256 256 255 256 256 256 257 257 257 258 258 259 259 260 260 261 262 263 264 265
121 128 138 153 172 191 207 219 230 237 242 246 250 253 255 258 259 260 261 262 263 264 264 265 264 264 265 265 266 266 267 266 266 265 264 263 263 262 261 261 260 260 259 259 259 258 257 256 254 253 252 251 250 250 250 250 251 252 253 253 253 253 253 253 254 254 255 256 256 257 257 257 258 258 259 259 259 260 260 261 261 262 263 263 264 265 266
109 117 126 137 152 167 183 197 210 220 228 234 240 245 249 252 256 258 260 262 264 265 267 268 269 269 269 269 269 269 269 269 269 268 268 267 266 265 264 263 262 262 261 260 260 259 258 258 257 256 255 254 253 252 251 251 251 252 252 253 254 254 254 255 254 255 255 256 256 257 257 258 258 259 259 260 261 261 262 262 263 263 264 264 265 265 266
70 73 77 81 89 101 125 172 214 230 238 241 245 250 253 256 259 261 263 264 266 267 268 268 269 270 271 271 271 271 271 271 272 271 271 270 269 268 267 266 265 264 263 263 262 261 260 260 259 258 257 257 256 255 254 253 253 253 253 253 253 254 255 255 256 256 256 257 257 257 258 258 258 259 260 260 261 262 262 263 264 264 265 265 266 266 267
48 47 45 42 36 31 23 13 1 349 336 325 317 310 305 302 299 297 295 293 291 289 287 285 282 280 279 279 278 277 276 275 275 275 275 274 274 272 271 269 267 266 265 264 264 263 263 262 261 260 259 258 258 257 257 256 256 255 255 254 254 254 255 255 256 256 257 257 258 258 259 259 259 260 260 261 261 262 262 263 264 265 265 266 267 267 268
47 46 44 41 34 27 20 11 2 356 349 342 336 331 326 322 319 316 314 312 310 309 307 306 303 301 298 295 293 290 287 285 284 282 281 280 279 278 277 275 273 271 269 267 266 265 264 263 263 262 261 261 260 259 258 258 257 257 257 256 256 256 256 256 256 256 257 257 258 258 259 259 260 260 261 261 262 262 263 263 264 265 266 267 267 268 269
37 40 43 43 39 32 21 12 3 354 347 340 335 330 325 321 318 316 314 313 312 312 311 311 310 309 309 307 305 303 301 299 297 295 293 290 287 285 283 281 280 278 276 273 271 269 267 266 265 264 264 263 262 261 260 259 259 258 258 258 258 258 258 258 258 258 258 258 258 258 259 259 259 260 260 261 262 262 263 263 264 265 266 267 268 269 270
5 357 351 348 354 1 1 357 350 341 335 330 326 323 319 317 315 314 313 312 311 310 310 310 310 310 310 310 309 309 308 308 306 305 303 302 299 296 293 290 288 286 284 282 279 276 274 272 270 268 266 265 264 264 263 262 261 260 260 259 259 259 259 259 259 259 259 259 259 259 260 260 260 260 261 261 262 262 263 263 264 265 266 267 268 268 269
354 343 332 321 312 307 310 317 319 317 317 317 318 317 317 316 315 314 313 312 312 311 310 309 308 308 308 308 307 307 307 308 308 308 308 307 306 304 302 299 296 294 292 290 287 285 282 280 278 275 272 270 268 267 266 265 264 263 262 261 261 260 260 260 260 260 260 260 260 260 260 261 261 261 261 262 262 263 263 264 264 265 266 267 268 269 270
346 341 335 327 319 312 308 307 308 308 309 310 312 314 316 317 317 316 314 313 312 311 310 309 308 306 306 306 306 306 306 306 306 307 307 307 308 308 307 306 304 302 300 298 295 292 289 287 285 282 280 278 275 273 271 269 268 267 266 265 264 263 262 262 261 261 261 261 261 261 261 261 262 262 262 262 263 263 264 264 265 265 266 267 268 269 270
339 336 333 330 325 320 316 314 313 312 310 311 313 316 318 320 321 321 320 317 314 311 310 309 309 307 306 304 304 304 304 304 304 305 305 306 307 308 308 308 308 307 306 304 302 298 295 292 289 287 284 283 281 279 277 275 273 272 270 269 267 266 265 264 264 263 262 262 262 262 262 262 262 263 263 263 263 264 264 264 265 265 266 267 268 269 270
333 332 330 329 327 325 322 321 320 318 315 315 317 320 322 323 324 324 323 321 319 317 314 312 310 309 308 306 304 303 302 303 303 304 305 305 306 306 307 307 308 308 307 306 305 303 301 298 295 292 289 286 284 282 281 279 278 276 275 273 272 270 269 268 267 266 265 264 264 264 263 263 263 263 263 263 264 264 264 265 265 266 266 267 267 268 269
329 328 328 328 328 327 325 325 324 322 320 319 321 324 326 327 327 327 327 326 324 323 322 319 316 314 312 311 309 308 306 305 304 304 304 304 304 304 305 305 306 306 306 306 306 305 304 302 301 298 296 293 290 287 284 282 280 278 277 276 275 274 273 272 270 269 268 267 266 265 265 265 264 264 264 264 264 265 265 265 266 266 267 267 267 268 269
326 326 326 326 326 326 325 325 324 323 322 322 323 326 328 330 331 331 331 330 329 328 327 325 323 320 318 317 316 314 311 309 307 306 305 305 305 305 305 304 303 303 303 303 303 302 302 302 301 301 300 299 297 294 291 288 285 282 280 278 277 276 275 274 273 272 270 269 268 267 266 266 265 265 266 266 265 265 265 266 266 267 267 268 268 269 269
323 323 324 324 324 324 324 324 323 323 322 323 324 326 329 331 332 332 333 333 333 333 332 331 330 328 326 323 322 320 319 317 315 313 311 309 307 306 306 306 306 305 305 305 305 305 304 303 302 301 300 299 299 297 296 294 292 289 286 283 281 279 277 275 274 273 272 271 269 268 268 267 267 266 266 266 266 266 265 266 266 266 267 267 268 269 270
321 321 321 321 321 322 322 322 321 320 320 321 322 325 328 330 331 332 333 334 335 335 335 335 335 334 332 329 327 325 324 324 323 322 319 316 313 310 308 308 308 308 308 307 307 307 306 305 304 303 302 300 299 298 297 296 295 293 292 289 287 284 282 280 278 276 274 273 271 269 268 268 268 267 267 267 267 267 266 266 266 266 266 267 268 269 270
319 319 319 319 320 320 320 320 319 318 318 319 320 323 326 328 329 331 332 333 334 335 336 336 336 337 336 335 333 331 329 328 327 326 325 323 321 318 316 314 313 313 312 311 310 309 309 308 308 307 305 304 302 301 299 298 297 295 295 293 292 290 288 285 283 280 278 276 274 272 270 268 268 268 268 268 268 268 267 267 266 267 267 267 268 269 269
316 316 317 317 318 319 319 318 317 317 316 316 318 320 324 326 328 330 331 332 333 334 335 336 337 337 338 337 336 335 333 332 330 329 329 328 327 326 324 322 321 321 320 319 318 316 315 314 313 312 311 309 307 305 303 301 299 298 296 295 295 293 292 290 288 285 283 280 278 275 273 271 269 268 269 269 269 269 268 268 268 268 268 268 268 269 269
314 314 315 315 316 317 317 316 316 315 315 315 316 319 322 325 327 328 330 332 333 334 335 335 336 336 337 338 338 337 336 335 333 332 332 331 331 331 330 329 328 326 326 325 324 322 321 320 319 319 318 316 313 311 308 306 304 302 300 298 297 296 295 293 291 289 286 284 281 279 276 274 272 270 269 269 269 269 269 268 268 268 268 268 268 268 268
311 312 312 313 314 315 315 315 314 313 313 313 315 318 322 324 326 327 329 331 332 334 334 335 335 336 336 337 337 337 337 336 335 334 334 334 333 333 333 332 331 329 328 328 327 326 325 323 323 322 322 320 318 315 312 309 307 305 303 302 300 299 297 296 294 291 289 286 284 281 279 277 275 272 270 269 269 269 269 269 268 268 267 267 267 267 267
Height
10454 10458 10460 10463 10466 10469 10472 10475 10478 10481 10481 10483 10488 10491 10492 10494 10496 10499 10502 10504 10506 10508 10511 10512 10513 10515 10517 10519 10520 10522 10525 10527 10530 10533 10535 10536 10538 10540 10543 10546 10549 10552 10555 10557 10560 10563 10566 10569 10572 10575 10577 10579 10581 10582 10583 10585 10589 10596 10600 10601 10601 10601 10602 10604 10605 10606 10606 10604 10604 10607 10608 10609 10610 10610 10610 10610 10610 10611 10613 10613 10614 10614 10615 10617 10618 10619 10619
10447 10452 10454 10457 10460 10464 10468 10471 10473 10475 10476 10479 10483 10486 10487 10489 10492 10496 10498 10499 10501 10503 10505 10507 10509 10511 10513 10514 10516 10518 10520 10523 10526 10529 10531 10533 10534 10536 10538 10541 10543 10547 10549 10552 10554 10557 10560 10563 10567 10570 10573 10575 10577 10578 10579 10582 10586 10592 10595 10595 10595 10596 10598 10601 10602 10602 10601 10599 10599 10602 10603 10604 10605 10605 10605 10606 10606 10607 10608 10608 10609 10609 10611 10612 10614 10615 10614
10441 10446 10449 10451 10455 10459 10463 10465 10467 10469 10471 10475 10479 10481 10483 10485 10487 10490 10492 10494 10496 10498 10499 10502 10504 10506 10508 10510 10512 10514 10516 10519 10522 10524 10527 10529 10531 10533 10534 10536 10538 10541 10544 10546 10549 10551 10554 10558 10562 10565 10568 10571 10573 10574 10576 10578 10583 10588 10590 10590 10592 10594 10595 10597 10598 10598 10597 10595 10596 10597 10598 10599 10600 10599 10600 10601 10602 10602 10603 10603 10603 10605 10607 10608 10610 10610 10608
10435 10439 10443 10446 10450 10454 10457 10460 10462 10464 10467 10472 10475 10477 10479 10481 10483 10485 10487 10490 10492 10492 10494 10497 10500 10501 10503 10505 10508 10511 10513 10516 10518 10521 10523 10525 10527 10528 10530 10532 10534 10536 10539 10541 10543 10546 10549 10552 10556 10559 10562 10565 10568 10570 10572 10575 10578 10583 10586 10588 10589 10589 10590 10592 10593 10593 10592 10592 10592 10592 10593 10594 10594 10594 10595 10596 10597 10598 10598 10598 10599 10601 10603 10604 10605 10604 10603
10429 10434 10437 10440 10443 10448 10452 10455 10457 10460 10464 10468 10471 10474 10476 10478 10480 10482 10483 10485 10487 10487 10489 10493 10495 10497 10499 10501 10504 10507 10511 10513 10516 10518 10519 10521 10523 10524 10525 10527 10529 10531 10534 10536 10538 10540 10543 10546 10549 10553 10556 10560 10563 10565 10568 10571 10574 10579 10582 10584 10584 10584 10585 10587 10588 10588 10588 10588 10587 10586 10586 10588 10589 10589 10589 10590 10592 10593 10593 10594 10595 10596 10598 10599 10600 10599 10598
10425 10429 10431 10433 10438 10443 10447 10451 10453 10456 10460 10464 10467 10469 10471 10474 10476 10478 10478 10480 10481 10483 10485 10488 10491 10493 10496 10498 10501 10505 10507 10509 10511 10513 10515 10517 10518 10519 10520 10522 10524 10526 10528 10531 10533 10535 10538 10541 10544 10547 10551 10555 10558 10560 10563 10566 10570 10573 10577 10578 10578 10579 10580 10581 10582 10584 10583 10582 10582 10580 10580 10582 10583 10583 10583 10584 10586 10588 10588 10588 10590 10591 10592 10594 10595 10595 10593
10419 10423 10424 10427 10433 10439 10442 10445 10448 10451 10455 10459 10461 10463 10466 10468 10469 10471 10473 10475 10476 10478 10481 10484 10487 10490 10493 10496 10499 10501 10504 10505 10507 10508 10510 10512 10513 10514 10516 10517 10519 10521 10523 10525 10527 10529 10532 10535 10539 10542 10545 10549 10552 10555 10557 10560 10564 10567 10570 10571 10572 10572 10574 10575 10576 10578 10577 10576 10576 10575 10575 10576 10575 10576 10576 10577 10579 10581 10582 10582 10582 10584 10588 10591 10592 10591 10589
10411 10416 10418 10422 10429 10433 10436 10440 10443 10447 10450 10454 10456 10458 10461 10463 10464 10466 10469 10470 10472 10474 10477 10480 10483 10486 10489 10492 10494 10496 10499 10501 10503 10504 10506 10508 10509 10510 10512 10513 10515 10517 10519 10520 10522 10524 10526 10530 10533 10536 10539 10542 10546 10549 10551 10554 10557 10561 10563 10564 10565 10566 10567 10568 10569 10570 10570 10570 10570 10570 10570 10570 10569 10569 10570 10570 10571 10574 10575 10576 10577 10580 10585 10587 10587 10585 10584
10404 10409 10413 10418 10423 10428 10431 10435 10438 10442 10445 10448 10451 10453 10455 10458 10459 10461 10462 10464 10467 10469 10472 10475 10478 10481 10484 10487 10489 10491 10493 10496 10498 10500 10502 10504 10505 10506 10508 10510 10512 10513 10514 10515 10517 10519 10521 10524 10526 10530 10533 10536 10539 10542 10545 10548 10551 10554 10556 10557 10559 10560 10561 10562 10562 10563 10564 10565 10565 10564 10565 10565 10564 10564 10564 10564 10565 10568 10570 10571 10572 10575 10578 10580 10580 10579 10578
10396 10402 10407 10412 10418 10423 10426 10430 10433 10437 10440 10443 10446 10448 10451 10454 10455 10456 10457 10460 10462 10465 10467 10471 10473 10476 10479 10482 10484 10486 10489 10491 10493 10495 10497 10499 10500 10502 10503 10505 10507 10508 10509 10510 10511 10513 10516 10518 10520 10523 10527 10530 10533 10535 10538 10541 10544 10546 10549 10551 10552 10554 10555 10556 10557 10557 10558 10559 10559 10559 10559 10559 10559 10559 10559 10559 10561 10563 10565 10565 10566 10568 10570 10571 10572 10573 10573
10388 10394 10400 10406 10412 10416 10419 10423 10427 10431 10434 10438 10441 10443 10446 10450 10452 10452 10454 10456 10457 10460 10463 10466 10468 10471 10474 10476 10479 10481 10484 10486 10489 10490 10492 10494 10495 10496 10498 10500 10502 10503 10504 10505 10506 10508 10509 10511 10514 10517 10520 10523 10526 10529 10531 10534 10537 10539 10542 10544 10547 10548 10549 10551 10551 10552 10553 10554 10555 10554 10554 10554 10554 10554 10554 10556 10557 10558 10559 10559 10560 10561 10562 10562 10564 10565 10566
10380 10386 10393 10399 10404 10408 10411 10415 10420 10425 10428 10432 10435 10438 10442 10446 10448 10448 10450 10451 10452 10455 10459 10461 10463 10466 10469 10471 10474 10477 10479 10481 10483 10485 10486 10488 10489 10490 10492 10494 10496 10498 10499 10500 10502 10503 10504 10505 10508 10511 10513 10516 10519 10522 10524 10527 10529 10532 10534 10537 10540 10542 10543 10544 10545 10546 10546 10546 10547 10548 10549 10549 10549 10549 10550 10552 10552 10553 10553 10553 10554 10554 10555 10555 10555 10556 10557
10376 10381 10386 10392 10397 10400 10404 10409 10414 10418 10422 10425 10430 10434 10438 10441 10442 10442 10444 10446 10447 10450 10453 10455 10458 10461 10463 10466 10468 10471 10473 10475 10477 10479 10480 10482 10484 10485 10486 10489 10491 10493 10494 10495 10496 10498 10499 10500 10502 10504 10506 10510 10512 10515 10518 10519 10521 10524 10526 10529 10532 10535 10537 10538 10539 10539 10539 10537 10538 10541 10543 10544 10544 10545 10545 10546 10547 10547 10548 10549 10549 10549 10549 10549 10549 10550 10551
10373 10377 10381 10386 10390 10393 10398 10403 10407 10412 10416 10419 10423 10428 10432 10434 10435 10436 10438 10440 10443 10445 10448 10450 10453 10455 10458 10460 10463 10465 10467 10469 10471 10473 10475 10476 10478 10480 10481 10483 10485 10487 10488 10490 10491 10492 10494 10495 10496 10497 10500 10503 10506 10509 10511 10512 10514 10516 10518 10521 10523 10526 10529 10531 10532 10533 10532 10531 10531 10534 10536 10537 10538 10538 10539 10539 10540 10541 10542 10543 10543 10543 10543 10543 10544 10545 10545
10368 10372 10377 10381 10385 10389 10393 10397 10401 10406 10410 10413 10416 10421 10425 10427 10430 10432 10434 10435 10438 10440 10442 10444 10447 10450 10452 10454 10457 10458 10460 10462 10465 10467 10469 10471 10472 10474 10476 10478 10479 10481 10483 10484 10486 10487 10488 10490 10491 10492 10494 10497 10499 10502 10505 10506 10507 10508 10510 10512 10515 10517 10520 10522 10524 10525 10525 10525 10525 10525 10527 10529 10530 10530 10531 10531 10531 10533 10535 10536 10536 10536 10536 10537 10537 10538 10539
10363 10369 10372 10375 10379 10383 10387 10391 10394 10398 10402 10405 10408 10413 10418 10422 10425 10427 10429 10430 10432 10435 10436 10439 10442 10444 10446 10449 10450 10452 10454 10457 10459 10461 10463 10465 10466 10468 10470 10472 10473 10475 10477 10478 10480 10481 10483 10484 10486 10487 10488 10490 10492 10495 10497 10499 10500 10502 10503 10504 10507 10509 10511 10513 10515 10516 10518 10518 10518 10519 10520 10521 10522 10522 10523 10524 10525 10527 10529 10529 10529 10529 10529 10530 10530 10530 10531
10360 10364 10366 10368 10371 10375 10379 10383 10386 10390 10394 10398 10402 10407 10411 10415 10419 10421 10423 10425 10427 10429 10431 10433 10436 10438 10441 10443 10444 10446 10448 10451 10453 10455 10457 10459 10461 10462 10464 10466 10467 10469 10470 10472 10473 10475 10477 10479 10480 10481 10482 10483 10484 10486 10489 10492 10494 10495 10497 10498 10500 10502 10503 10505 10507 10509 10510 10511 10512 10512 10513 10514 10514 10515 10516 10517 10518 10519 10520 10521 10521 10521 10522 10522 10523 10523 10522
10355 10358 10360 10363 10367 10370 10373 10376 10380 10384 10388 10392 10396 10400 10404 10408 10411 10414 10416 10418 10421 10424 10426 10428 10430 10433 10435 10437 10439 10441 10443 10446 10448 10450 10452 10453 10455 10456 10458 10459 10460 10462 10463 10464 10466 10468 10470 10472 10474 10475 10476 10476 10477 10479 10482 10485 10486 10488 10490 10491 10492 10493 10495 10496 10499 10501 10502 10504 10504 10505 10506 10507 10507 10507 10508 10508 10509 10509 10510 10511 10512 10513 10515 10515 10515 10514 10513
10350 10352 10354 10358 10361 10365 10368 10371 10374 10378 10383 10387 10390 10394 10397 10400 10403 10407 10410 10412 10416 10419 10421 10423 10425 10428 10430 10432 10434 10437 10439 10440 10442 10444 10446 10447 10448 10449 10451 10452 10453 10454 10456 10457 10459 10460 10462 10465 10467 10468 10469 10470 10471 10472 10474 10476 10478 10479 10481 10483 10484 10485 10487 10489 10491 10493 10495 10496 10497 10497 10498 10499 10499 10499 10499 10500 10500 10500 10501 10502 10504 10506 10507 10508 10508 10506 10505
10343 10346 10348 10351 10355 10360 10364 10366 10369 10373 10378 10381 10384 10388 10391 10393 10396 10401 10405 10408 10411 10414 10416 10418 10420 10422 10424 10426 10429 10432 10433 10435 10436 10438 10439 10440 10441 10442 10444 10445 10446 10447 10448 10449 10451 10452 10454 10457 10459 10461 10463 10464 10465 10466 10467 10468 10470 10471 10473 10475 10476 10477 10479 10481 10483 10485 10487 10488 10489 10489 10489 10490 10491 10491 10492 10492 10493 10493 10493 10494 10495 10497 10498 10499 10500 10499 10498
10338 10340 10343 10347 10351 10355 10359 10362 10365 10369 10373 10377 10380 10383 10385 10388 10391 10395 10400 10403 10406 10408 10411 10413 10415 10416 10418 10421 10423 10426 10427 10429 10430 10431 10432 10434 10435 10436 10437 10438 10439 10440 10441 10441 10443 10445 10447 10449 10451 10453 10455 10456 10458 10459 10459 10461 10462 10464 10465 10466 10468 10469 10471 10474 10476 10477 10478 10479 10479 10480 10480 10481 10482 10483 10483 10484 10484 10484 10484 10484 10485 10487 10488 10489 10490 10490 10490
10333 10336 10339 10343 10347 10350 10354 10357 10360 10364 10368 10372 10375 10378 10380 10383 10386 10390 10394 10397 10400 10402 10405 10407 10409 10410 10412 10415 10417 10419 10421 10422 10424 10425 10426 10427 10428 10429 10429 10430 10432 10433 10433 10434 10436 10438 10439 10441 10443 10445 10446 10448 10450 10451 10452 10454 10455 10456 10457 10458 10459 10461 10463 10465 10467 10468 10469 10469 10470 10470 10471 10471 10472 10473 10473 10474 10474 10475 10475 10475 10476 10477 10478 10478 10479 10480 10480
10329 10332 10335 10339 10342 10346 10349 10353 10356 10360 10363 10367 10370 10373 10375 10378 10381 10384 10388 10391 10394 10397 10399 10400 10402 10404 10406 10408 10410 10412 10414 10415 10416 10417 10418 10419 10421 10422 10422 10423 10424 10425 10425 10427 10429 10431 10432 10433 10434 10436 10438 10440 10442 10444 10445 10446 10448 10449 10450 10451 10452 10452 10454 10456 10457 10459 10459 10460 10461 10462 10462 10463 10463 10464 10465 10465 10466 10466 10466 10467 10467 10467 10467 10468 10469 10469 10469
10326 10329 10332 10335 10338 10342 10346 10349 10353 10356 10359 10363 10366 10369 10372 10374 10377 10380 10383 10386 10389 10391 10393 10395 10397 10398 10399 10401 10403 10405 10406 10407 10408 10409 10410 10412 10413 10414 10415 10415 10416 10416 10418 10420 10422 10423 10423 10424 10426 10428 10431 10433 10434 10435 10437 10439 10440 10442 10443 10444 10444 10445 10446 10447 10448 10449 10450 10451 10453 10454 10455 10454 10455 10455 10456 10457 10457 10457 10458 10458 10458 10458 10458 10457 10457 10457 10457
10324 10326 10329 10332 10335 10339 10343 10346 10350 10353 10356 10359 10362 10365 10368 10370 10373 10375 10378 10380 10383 10385 10388 10390 10391 10392 10393 10394 10396 10397 10399 10400 10400 10401 10403 10404 10405 10406 10407 10408 10408 10408 10410 10412 10413 10414 10414 10415 10417 10420 10422 10423 10425 10426 10428 10430 10431 10433 10434 10435 10435 10436 10437 10437 10438 10440 10441 10443 10444 10445 10445 10445 10446 10446 10447 10447 10448 10448 10448 10449 10449 10448 10448 10446 10445 10445 10446
10322 10324 10327 10330 10333 10336 10340 10343 10347 10350 10353 10356 10358 10361 10364 10366 10369 10371 10373 10375 10377 10379 10381 10383 10384 10385 10386 10387 10388 10389 10390 10391 10392 10393 10394 10396 10397 10397 10399 10399 10400 10400 10402 10403 10405 10405 10405 10406 10409 10411 10412 10413 10415 10417 10419 10420 10421 10422 10423 10424 10425 10426 10427 10428 10429 10431 10432 10434 10434 10435 10435 10435 10436 10436 10436 10436 10437 10437 10438 10439 10440 10439 10436 10435 10434 10435 10435
10320 10323 10326 10328 10331 10334 10337 10341 10344 10347 10350 10353 10355 10358 10360 10362 10364 10366 10368 10369 10371 10372 10374 10375 10376 10377 10378 10378 10379 10380 10381 10382 10383 10384 10385 10386 10388 10389 10390 10391 10391 10392 10393 10394 10395 10396 10397 10398 10400 10401 10402 10403 10405 10407 10409 10411 10411 10412 10412 10413 10415 10417 10417 10418 10419 10420 10421 10422 10423 10423 10423 10424 10424 10425 10426 10426 10426 10428 10429 10430 10429 10427 10424 10422 10423 10425 10425
10319 10321 10324 10327 10329 10332 10335 10338 10341 10344 10346 10349 10351 10353 10355 10357 10358 10359 10361 10362 10364 10365 10366 10367 10367 10368 10368 10368 10369 10370 10371 10372 10373 10374 10374 10375 10377 10379 10380 10381 10382 10382 10383 10385 10386 10387 10388 10389 10390 10391 10393 10394 10395 10396 10399 10401 10401 10401 10402 10403 10404 10406 10406 10407 10408 10409 10410 10411 10412 10412 10412 10413 10413 10414 10415 10414 10414 10416 10419 10419 10418 10416 10411 10410 10412 10414 10414
10318 10320 10322 10325 10327 10330 10333 10335 10337 10340 10342 10343 10345 10347 10349 10351 10352 10353 10354 10355 10355 10356 10357 10358 10358 10359 10359 10359 10360 10360 10360 10361 10362 10362 10363 10364 10367 10369 10370 10371 10372 10372 10372 10374 10376 10377 10377 10378 10379 10381 10382 10384 10385 10386 10388 10390 10391 10391 10391 10392 10393 10395 10396 10396 10396 10397 10398 10400 10401 10401 10401 10401 10402 10403 10403 10402 10401 10403 10406 10407 10406 10404 10400 10398 10400 10403 10402
10316 10318 10320 10323 10325 10327 10329 10331 10333 10335 10337 10338 10340 10341 10343 10344 10345 10346 10346 10347 10347 10348 10348 10349 10349 10349 10350 10350 10351 10351 10350 10351 10352 10352 10352 10353 10355 10357 10358 10360 10361 10361 10361 10363 10366 10367 10367 10367 10368 10370 10371 10373 10374 10375 10377 10379 10380 10380 10380 10381 10383 10384 10385 10385 10385 10385 10387 10388 10389 10390 10390 10389 10388 10389 10391 10390 10389 10391 10393 10395 10394 10392 10388 10385 10386 10389 10390
10315 10317 10319 10321 10323 10325 10326 10328 10330 10331 10333 10334 10335 10336 10337 10338 10339 10339 10340 10340 10340 10341 10341 10341 10341 10341 10341 10342 10342 10342 10342 10342 10343 10343 10343 10343 10344 10345 10346 10348 10350 10349 10349 10352 10354 10356 10356 10356 10357 10359 10360 10361 10362 10363 10365 10367 10367 10368 10368 10370 10372 10373 10374 10375 10374 10373 10374 10376 10378 10378 10377 10376 10376 10377 10379 10379 10378 10378 10380 10383 10383 10380 10375 10372 10371 10374 10376
10315 10317 10318 10320 10321 10322 10324 10326 10327 10328 10329 10330 10331 10332 10332 10333 10334 10334 10334 10334 10334 10334 10334 10334 10335 10334 10334 10334 10334 10333 10333 10334 10335 10334 10334 10334 10335 10335 10336 10337 10338 10338 10339 10340 10342 10344 10345 10346 10347 10348 10348 10349 10350 10351 10352 10354 10354 10355 10356 10358 10360 10361 10362 10362 10362 10361 10362 10364 10365 10365 10365 10364 10365 10366 10368 10368 10366 10366 10367 10370 10370 10368 10364 10361 10361 10361 10362
10317 10317 10318 10319 10321 10322 10323 10324 10325 10326 10327 10327 10328 10328 10329 10329 10329 10329 10329 10329 10329 10328 10328 10328 10328 10328 10327 10327 10326 10326 10325 10325 10326 10325 10325 10325 10325 10326 10326 10326 10327 10328 10328 10328 10329 10331 10332 10334 10335 10336 10336 10337 10338 10339 10340 10341 10341 10341 10343 10345 10347 10347 10348 10350 10350 10350 10350 10350 10351 10352 10353 10354 10354 10355 10355 10355 10354 10353 10354 10356 10357 10355 10352 10351 10351 10350 10350
10318 10319 10320 10320 10321 10322 10323 10323 10324 10325 10325 10325 10326 10326 10326 10326 10326 10326 10325 10325 10324 10324 10323 10323 10323 10322 10322 10321 10321 10319 10318 10318 10317 10317 10316 10316 10316 10316 10316 10316 10317 10317 10317 10317 10318 10318 10320 10321 10322 10323 10324 10324 10325 10326 10328 10328 10328 10328 10330 10332 10332 10333 10335 10337 10338 10338 10337 10337 10337 10339 10341 10342 10342 10342 10342 10341 10341 10341 10342 10343 10343 10341 10340 10339 10339 10339 10338
10319 10320 10321 10321 10322 10322 10323 10323 10324 10324 10324 10324 10324 10324 10324 10324 10323 10323 10322 10321 10321 10320 10319 10318 10318 10317 10317 10316 10315 10314 10313 10312 10311 10310 10309 10308 10308 10307 10307 10307 10307 10307 10307 10307 10307 10307 10308 10309 10310 10310 10311 10311 10312 10314 10315 10315 10315 10315 10317 10318 10319 10319 10321 10323 10325 10325 10324 10323 10324 10326 10327 10328 10328 10328 10328 10327 10327 10328 10329 10330 10329 10327 10326 10326 10326 10326 10324
10320 10320 10320 10321 10321 10322 10322 10322 10322 10322 10322 10322 10322 10322 10321 10321 10320 10319 10319 10318 10317 10316 10315 10314 10314 10313 10312 10311 10310 10309 10308 10307 10306 10304 10303 10302 10301 10300 10299 10299 10298 10298 10297 10297 10296 10297 10297 10298 10298 10298 10298 10299 10300 10301 10302 10302 10302 10303 10304 10305 10306 10306 10307 10309 10310 10311 10311 10311 10312 10313 10313 10314 10314 10314 10314 10314 10314 10315 10317 10317 10315 10313 10312 10312 10312 10311 10310
10320 10320 10320 10320 10320 10320 10321 10320 10320 10320 10320 10319 10319 10318 10318 10317 10316 10315 10314 10314 10313 10312 10311 10310 10309 10308 10308 10306 10305 10304 10303 10302 10300 10299 10297 10296 10295 10293 10292 10291 10291 10290 10289 10288 10287 10287 10287 10287 10287 10287 10287 10287 10288 10289 10289 10289 10290 10290 10291 10292 10292 10293 10293 10294 10295 10297 10297 10298 10298 10298 10298 10299 10300 10301 10300 10301 10302 10302 10303 10303 10301 10299 10298 10298 10298 10297 10296
10321 10321 10321 10321 10321 10320 10320 10320 10319 10319 10318 10318 10317 10316 10315 10314 10313 10312 10311 10310 10309 10307 10306 10305 10304 10303 10302 10301 10300 10299 10298 10296 10295 10293 10292 10291 10289 10288 10286 10285 10284 10282 10281 10280 10279 10278 10278 10278 10277 10277 10276 10276 10277 10277 10277 10277 10277 10278 10278 10278 10279 10279 10279 10280 10281 10283 10283 10283 10284 10284 10284 10285 10287 10287 10286 10287 10289 10289 10289 10289 10289 10286 10285 10284 10284 10283 10283
10322 10322 10322 10321 10321 10321 10320 10320 10319 10319 10318 10317 10316 10315 10314 10313 10312 10311 10309 10308 10306 10304 10303 10301 10300 10298 10297 10295 10294 10293 10292 10291 10290 10288 10286 10285 10284 10282 10281 10279 10277 10276 10274 10273 10272 10271 10270 10269 10269 10268 10267 10267 10266 10266 10266 10266 10266 10266 10266 10266 10266 10266 10266 10267 10267 10268 10269 10269 10270 10270 10270 10271 10272 10272 10272 10273 10274 10274 10275 10276 10275 10274 10272 10272 10271 10270 10269
10323 10322 10322 10322 10321 10321 10320 10319 10319 10318 10318 10317 10316 10315 10314 10313 10311 10310 10308 10307 10305 10303 10301 10299 10297 10295 10293 10292 10290 10288 10286 10285 10284 10282 10281 10279 10278 10277 10275 10273 10272 10270 10268 10266 10265 10263 10262 10262 10261 10260 10259 10258 10257 10256 10255 10255 10255 10255 10255 10255 10255 10255 10255 10255 10255 10255 10256 10256 10257 10256 10256 10257 10258 10259 10258 10259 10260 10260 10261 10262 10262 10261 10260 10259 10258 10257 10256
10322 10322 10322 10321 10321 10320 10319 10318 10318 10317 10317 10316 10315 10314 10313 10312 10310 10309 10307 10305 10303 10301 10299 10297 10295 10293 10291 10289 10287 10285 10283 10281 10279 10277 10275 10274 10272 10271 10269 10268 10266 10265 10263 10261 10258 10257 10255 10254 10253 10252 10251 10250 10248 10247 10246 10246 10245 10245 10244 10244 10244 10244 10243 10243 10243 10243 10243 10244 10244 10244 10243 10243 10244 10245 10245 10246 10246 10247 10248 10249 10249 10248 10247 10246 10245 10245 10244
10321 10321 10320 10320 10319 10319 10318 10317 10316 10315 10315 10314 10313 10312 10311 10310 10309 10308 10306 10304 10302 10300 10298 10296 10293 10291 10288 10286 10284 10282 10280 10278 10276 10274 10271 10269 10267 10265 10263 10262 10260 10258 10257 10255 10253 10251 10249 10248 10246 10245 10243 10242 10240 10239 10238 10237 10236 10235 10235 10234 10233 10233 10233 10232 10232 10232 10232 10232 10233 10232 10232 10232 10232 10232 10232 10233 10233 10234 10235 10236 10236 10235 10234 10234 10233 10233 10232
10320 10320 10319 10318 10318 10317 10316 10315 10314 10313 10312 10312 10311 10310 10309 10308 10307 10306 10304 10302 10301 10299 10297 10294 10292 10289 10286 10284 10281 10279 10277 10274 10272 10270 10268 10265 10263 10261 10258 10256 10254 10252 10250 10249 10247 10245 10243 10242 10240 10239 10237 10235 10233 10231 10230 10229 10228 10226 10225 10224 10224 10223 10222 10222 10222 10221 10222 10222 10222 10222 10221 10221 10220 10220 10220 10220 10221 10222 10223 10224 10223 10222 10222 10222 10222 10221 10221
10319 10318 10317 10317 10316 10315 10314 10313 10312 10311 10310 10309 10308 10307 10306 10305 10304 10303 10301 10300 10298 10296 10294 10292 10290 10287 10284 10281 10279 10277 10274 10272 10269 10267 10264 10262 10259 10257 10254 10252 10250 10247 10244 10242 10241 10239 10237 10235 10234 10232 10231 10229 10227 10225 10223 10221 10220 10218 10217 10216 10214 10213 10213 10212 10212 10211 10211 10211 10211 10211 10210 10210 10209 10208 10208 10208 10209 10210 10211 10212 10211 10211 10211 10210 10209 10209 10209
10317 10316 10315 10314 10314 10312 10311 10310 10309 10308 10307 10306 10305 10304 10303 10301 10300 10299 10298 10296 10295 10293 10291 10289 10287 10284 10282 10279 10276 10274 10271 10269 10266 10264 10261 10259 10256 10253 10251 10249 10246 10243 10240 10237 10235 10233 10231 10229 10227 10225 10223 10222 10220 10218 10216 10215 10213 10211 10209 10208 10206 10205 10204 10203 10202 10201 10201 10201 10201 10200 10200 10199 10198 10197 10196 10196 10198 10200 10200 10200 10200 10200 10199 10197 10197 10198 10198
10315 10314 10313 10312 10311 10310 10309 10308 10307 10305 10304 10303 10302 10301 10299 10298 10297 10295 10294 10292 10291 10289 10287 10285 10283 10281 10279 10276 10274 10271 10268 10265 10263 10260 10258 10256 10253 10250 10247 10245 10243 10241 10238 10235 10231 10228 10226 10224 10221 10219 10217 10214 10212 10211 10209 10207 10205 10204 10203 10201 10199 10198 10196 10195 10193 10192 10191 10191 10191 10191 10190 10189 10188 10187 10186 10185 10187 10189 10189 10189 10189 10189 10188 10186 10186 10187 10188
10313 10312 10311 10310 10309 10308 10307 10305 10304 10303 10301 10300 10299 10298 10296 10295 10293 10292 10290 10289 10287 10285 10283 10281 10279 10277 10275 10272 10270 10267 10265 10262 10259 10256 10254 10252 10250 10247 10244 10241 10238 10236 10233 10231 10227 10224 10221 10218 10216 10214 10211 10208 10206 10204 10202 10199 10197 10196 10195 10193 10192 10190 10188 10187 10185 10184 10182 10182 10183 10182 10181 10179 10178 10178 10177 10176 10177 10179 10180 10179 10178 10178 10178 10177 10176 10177 10177
10310 10309 10308 10307 10306 10305 10304 10303 10301 10300 10299 10297 10296 10295 10293 10292 10290 10289 10287 10285 10283 10281 10279 10277 10275 10273 10270 10268 10266 10264 10261 10258 10255 10252 10249 10247 10244 10242 10240 10237 10234 10231 10228 10226 10223 10220 10216 10212 10210 10208 10205 10203 10200 10198 10195 10193 10191 10188 10186 10185 10184 10182 10180 10179 10177 10176 10174 10173 10174 10174 10173 10171 10169 10169 10168 10168 10167 10168 10169 10170 10169 10168 10168 10168 10168 10168 10168
10307 10306 10305 10304 10303 10302 10301 10300 10299 10297 10296 10294 10293 10292 10291 10289 10288 10286 10284 10281 10279 10277 10275 10273 10270 10268 10266 10263 10261 10259 10257 10254 10252 10249 10246 10242 10239 10237 10234 10232 10229 10226 10223 10220 10218 10215 10212 10208 10205 10202 10199 10196 10194 10192 10189 10186 10184 10182 10179 10177 10176 10174 10173 10171 10169 10167 10166 10165 10164 10165 10164 10164 10162 10160 10159 10159 10158 10158 10159 10160 10159 10159 10159 10159 10159 10159 10158
10304 10303 10302 10301 10300 10299 10298 10297 10295 10294 10293 10291 10290 10289 10288 10286 10284 10283 10280 10278 10276 10273 10271 10268 10266 10264 10261 10259 10256 10254 10252 10249 10246 10244 10241 10238 10235 10231 10228 10226 10223 10220 10217 10214 10211 10208 10206 10203 10200 10196 10193 10190 10187 10185 10183 10180 10177 10175 10173 10171 10169 10167 10165 10164 10162 10160 10158 10157 10156 10155 10155 10155 10154 10153 10151 10150 10149 10149 10150 10150 10150 10150 10150 10150 10150 10150 10149
10301 10300 10298 10297 10296 10295 10294 10293 10292 10291 10289 10288 10287 10286 10284 10283 10281 10279 10277 10275 10272 10269 10267 10264 10262 10259 10257 10254 10252 10249 10246 10244 10241 10238 10236 10233 10230 10227 10223 10220 10217 10215 10212 10209 10205 10202 10199 10196 10193 10191 10188 10184 10181 10178 10176 10173 10171 10168 10166 10165 10163 10161 10159 10157 10155 10153 10151 10149 10148 10147 10147 10146 10146 10145 10144 10143 10142 10141 10141 10141 10142 10142 10141 10141 10141 10141 10141
10297 10296 10295 10294 10293 10292 10291 10290 10289 10287 10286 10285 10284 10282 10281 10279 10277 10275 10273 10271 10268 10266 10263 10260 10257 10255 10252 10250 10248 10245 10242 10239 10236 10233 10230 10228 10225 10222 10219 10215 10212 10209 10206 10203 10200 10196 10193 10190 10187 10184 10182 10179 10176 10172 10169 10166 10164 10162 10160 10158 10156 10154 10152 10150 10148 10147 10145 10143 10141 10140 10139 10138 10137 10137 10137 10136 10135 10134 10133 10133 10133 10133 10133 10133 10133 10133 10133